User: anonymous   Login
Location: Unspecified
(0.0000°N, 0.0000°E)
Time: 09:45:06
(UTC+00:00)
Language:

UFO F7 - Orbit

View from above orbital plane
View from above orbital plane
View from above satellite
View from above satellite

Ground track
Ground track

The orbit data is extracted from the following two-line orbital elements,

1 23967U 96042A   20058.52504420 +.00000059 +00000-0 +00000-0 0  9999
2 23967 009.1509 027.0161 0008619 012.8029 171.3449 01.00370602086402
Epoch (UTC): 27 February 2020 12:36:03
Eccentricity: 0.0008619
inclination: 9.1509°
perigee height: 35722 km
apogee height: 35795 km
right ascension of ascending node: 27.0161°
argument of perigee: 12.8029°
revolutions per day: 1.00370602
mean anomaly at epoch: 171.3449°
orbit number at epoch: 8640

The dashed part of the orbit path shows where the satellite is in the earth's shadow,  

DLR